Hearne, TX

9:19 PM CST on December 13, 2019 (GMT -0600)
Hearne

Weather History for KLHB - November, 2019

Change the Weather History Date:

Tuesday, November 12, 2019

  Actual Average (KCLL) Record (KCLL)
Temperature  
Mean Temperature 36 °F -  
Max Temperature 44 °F 68 °F 86 °F (1955)
Min Temperature 28 °F 50 °F 25 °F (1950)
Degree Days  
Heating Degree Days 29    
Moisture  
Dew Point 19 °F    
Average Humidity 55    
Maximum Humidity 74    
Minimum Humidity 33    
Precipitation  
Precipitation 0.05 in - - ()
Sea Level Pressure  
Sea Level Pressure 30.52 in    
Wind  
Wind Speed 18 mph ()    
Max Wind Speed 30 mph    
Max Gust Speed 37 mph    
Visibility 10.0 miles    
Events      
Averages and records for this station are not official NWS values.
T = Trace of Precipitation, MM = Missing Value Source: Averaged Metar Reports

Daily Weather History Graph

Daily Weather History Graph

Search for Another Location

Airport or City:

Astronomy

Nov. 12, 2019 Rise Set
Actual Time 6:50 AM CST 5:30 PM CST
Civil Twilight 6:24 AM CST 5:55 PM CST
Nautical Twilight 5:55 AM CST 6:24 PM CST
Astronomical Twilight 5:27 AM CST 6:53 PM CST
Moon 5:56 PM CST (11/12) 6:46 AM CST (11/12)
Length of Visible Light 11h 30m
Length of Day
10h 40m
Full, 100% of the Moon is Illuminated
Nov 12
Full
Nov 19
Last Quarter
Nov 26
New
Dec 4
First Quarter
Dec 11
Full

Hourly Weather History & Observations

Time (CST) Temp. Windchill Dew Point Humidity Pressure Visibility Wind Dir Wind Speed Gust Speed Precip Events Conditions
12:15 AM 34.3 °F 21.5 °F 26.8 °F 74% 30.45 in 10.0 mi North 26.5 mph 35.7 mph N/A   Overcast
12:35 AM 34.3 °F 22.6 °F 27.0 °F 74% 30.46 in 10.0 mi North 21.9 mph 28.8 mph N/A   Overcast
12:55 AM 34.2 °F 22.1 °F 26.2 °F 73% 30.46 in 10.0 mi North 23.0 mph 34.5 mph N/A   Overcast
1:15 AM 34.2 °F 21.5 °F 25.9 °F 72% 30.47 in 10.0 mi NNW 25.3 mph 31.1 mph N/A   Overcast
1:35 AM 33.8 °F 20.1 °F 25.0 °F 70% 30.48 in 10.0 mi North 29.9 mph 36.8 mph N/A   Overcast
1:55 AM 33.8 °F 21.3 °F 24.6 °F 69% 30.47 in 10.0 mi North 24.2 mph 31.1 mph N/A   Overcast
2:15 AM 33.6 °F 21.3 °F 24.1 °F 68% 30.48 in 10.0 mi North 23.0 mph 35.7 mph N/A   Overcast
2:35 AM 33.3 °F 19.8 °F 23.7 °F 68% 30.49 in 10.0 mi North 27.6 mph 34.5 mph N/A   Overcast
2:55 AM 33.1 °F 21.2 °F 23.5 °F 68% 30.48 in 10.0 mi North 20.7 mph 32.2 mph N/A   Overcast
3:15 AM 32.9 °F 20.1 °F 22.8 °F 66% 30.50 in 10.0 mi North 24.2 mph 32.2 mph N/A   Overcast
3:35 AM 32.4 °F 18.9 °F 21.0 °F 63% 30.51 in 10.0 mi NNW 26.5 mph 36.8 mph N/A   Mostly Cloudy
3:55 AM 32.2 °F 19.4 °F 20.1 °F 61% 30.51 in 10.0 mi North 23.0 mph 36.8 mph N/A   Scattered Clouds
4:15 AM 32.2 °F 19.4 °F 19.6 °F 60% 30.53 in 10.0 mi North 23.0 mph 33.4 mph N/A   Clear
4:35 AM 32.0 °F 20.1 °F 18.9 °F 58% 30.54 in 10.0 mi North 19.6 mph 25.3 mph N/A   Clear
4:55 AM 32.0 °F 19.8 °F 19.2 °F 59% 30.54 in 10.0 mi NNW 20.7 mph 28.8 mph N/A   Clear
5:15 AM 31.5 °F 17.9 °F 18.3 °F 58% 30.54 in 10.0 mi North 25.3 mph 34.5 mph N/A   Clear
5:35 AM 31.5 °F 17.9 °F 17.6 °F 57% 30.56 in 10.0 mi North 25.3 mph 32.2 mph N/A   Clear
5:55 AM 31.5 °F 17.6 °F 16.9 °F 55% 30.54 in 10.0 mi North 26.5 mph 33.4 mph N/A   Clear
6:15 AM 31.1 °F 19.3 °F 17.2 °F 57% 30.55 in 10.0 mi North 18.4 mph 26.5 mph N/A   Clear
6:35 AM 30.9 °F 17.8 °F 16.3 °F 55% 30.57 in 10.0 mi North 23.0 mph 34.5 mph N/A   Clear
6:55 AM 30.2 °F 16.5 °F 16.0 °F 56% 30.55 in 10.0 mi North 24.2 mph 33.4 mph N/A   Clear
7:15 AM 30.0 °F 16.9 °F 16.0 °F 56% 30.58 in 10.0 mi North 21.9 mph 33.4 mph N/A   Clear
7:35 AM 29.7 °F 17.4 °F 16.0 °F 57% 30.59 in 10.0 mi North 18.4 mph 27.6 mph N/A   Clear
7:55 AM 29.3 °F 15.9 °F 15.8 °F 57% 30.61 in 10.0 mi NNW 21.9 mph 29.9 mph N/A   Clear
8:15 AM 29.7 °F 16.7 °F 15.8 °F 56% 30.61 in 10.0 mi North 20.7 mph 28.8 mph N/A   Clear
8:35 AM 29.3 °F 16.6 °F 14.9 °F 55% 30.61 in 10.0 mi North 19.6 mph 31.1 mph N/A   Clear
8:55 AM 30.7 °F 18.5 °F 15.8 °F 54% 30.62 in 10.0 mi North 19.6 mph 26.5 mph N/A   Clear
9:15 AM 31.1 °F 19.3 °F 16.3 °F 54% 30.63 in 10.0 mi North 18.4 mph 26.5 mph N/A   Clear
9:35 AM 31.6 °F 19.3 °F 16.2 °F 53% 30.63 in 10.0 mi NNW 20.7 mph 24.2 mph N/A   Clear
9:55 AM 32.0 °F 20.5 °F 16.2 °F 52% 30.62 in 10.0 mi North 18.4 mph 25.3 mph N/A   Clear
10:15 AM 32.7 °F 21.1 °F 16.7 °F 52% 30.61 in 10.0 mi North 19.6 mph 25.3 mph N/A   Clear
10:35 AM 33.8 °F 22.8 °F 16.5 °F 49% 30.60 in 10.0 mi North 18.4 mph 25.3 mph N/A   Clear
10:55 AM 33.4 °F 23.5 °F 17.1 °F 51% 30.60 in 10.0 mi NNW 15.0 mph 21.9 mph N/A   Clear
11:15 AM 35.1 °F 24.5 °F 17.1 °F 48% 30.59 in 10.0 mi North 18.4 mph 23.0 mph N/A   Clear
11:35 AM 36.7 °F 26.9 °F 17.6 °F 46% 30.59 in 10.0 mi NNW 17.3 mph 21.9 mph N/A   Clear
11:55 AM 38.3 °F 30.1 °F 17.6 °F 43% 30.58 in 10.0 mi North 13.8 mph 21.9 mph N/A   Clear
12:15 PM 39.2 °F 30.2 °F 18.7 °F 44% 30.57 in 10.0 mi North 17.3 mph 20.7 mph N/A   Clear
12:35 PM 39.9 °F 31.1 °F 18.0 °F 41% 30.56 in 10.0 mi North 17.3 mph 21.9 mph N/A   Clear
12:55 PM 40.3 °F 31.6 °F 17.8 °F 40% 30.55 in 10.0 mi North 17.3 mph 21.9 mph N/A   Clear
1:35 PM 41.4 °F 32.7 °F 18.7 °F 40% 30.52 in 10.0 mi North 18.4 mph - N/A   Clear
2:15 PM 43.0 °F 35.4 °F 18.5 °F 37% 30.51 in 10.0 mi North 16.1 mph 24.2 mph N/A   Clear
2:35 PM 43.3 °F 35.8 °F 19.2 °F 38% 30.50 in 10.0 mi NNW 16.1 mph 20.7 mph N/A   Clear
2:55 PM 43.7 °F 36.0 °F 18.3 °F 36% 30.49 in 10.0 mi NW 17.3 mph 21.9 mph N/A   Clear
3:15 PM 44.1 °F 36.8 °F 18.1 °F 35% 30.49 in 10.0 mi North 16.1 mph 25.3 mph N/A   Clear
3:35 PM 44.1 °F 37.1 °F 18.5 °F 36% 30.48 in 10.0 mi NNW 15.0 mph 19.6 mph N/A   Clear
3:55 PM 44.2 °F 36.7 °F 17.6 °F 34% 30.48 in 10.0 mi North 17.3 mph 21.9 mph N/A   Clear
4:15 PM 43.7 °F 36.9 °F 16.0 °F 33% 30.47 in 10.0 mi North 13.8 mph 19.6 mph N/A   Clear
4:35 PM 43.2 °F 35.9 °F 17.8 °F 36% 30.47 in 10.0 mi NNW 15.0 mph - N/A   Clear
4:55 PM 41.9 °F 34.6 °F 17.2 °F 37% 30.47 in 10.0 mi NNW 13.8 mph 17.3 mph N/A   Clear
5:15 PM 40.1 °F 33.6 °F 16.0 °F 38% 30.47 in 10.0 mi North 10.4 mph - N/A   Clear
5:35 PM 37.8 °F 32.5 °F 16.9 °F 43% 30.47 in 10.0 mi North 6.9 mph - N/A   Clear
5:55 PM 34.3 °F 30.2 °F 18.5 °F 52% 30.46 in 10.0 mi North 4.6 mph - N/A   Clear
6:35 PM 33.8 °F 26.4 °F 18.7 °F 54% 30.46 in 10.0 mi North 9.2 mph - N/A   Clear
6:55 PM 32.5 °F 27.1 °F 18.9 °F 57% 30.46 in 10.0 mi North 5.8 mph - N/A   Clear
7:15 PM 31.1 °F 24.5 °F 19.0 °F 61% 30.46 in 10.0 mi North 6.9 mph - N/A   Clear
7:35 PM 30.7 °F 26.0 °F 19.4 °F 63% 30.47 in 10.0 mi NNW 4.6 mph - N/A   Clear
7:55 PM 30.2 °F 24.3 °F 19.0 °F 63% 30.47 in 10.0 mi North 5.8 mph - N/A   Clear
8:15 PM 31.5 °F 25.8 °F 18.5 °F 59% 30.47 in 10.0 mi North 5.8 mph - N/A   Clear
8:35 PM 29.8 °F 23.9 °F 19.2 °F 65% 30.47 in 10.0 mi North 5.8 mph - N/A   Clear
8:55 PM 30.2 °F 23.4 °F 19.2 °F 64% 30.46 in 10.0 mi North 6.9 mph - N/A   Clear
9:15 PM 30.6 °F 22.4 °F 18.7 °F 61% 30.46 in 10.0 mi North 9.2 mph - N/A   Clear
9:35 PM 31.1 °F 24.5 °F 18.3 °F 59% 30.46 in 10.0 mi North 6.9 mph - N/A   Clear
9:55 PM 30.0 °F - 18.3 °F 62% 30.46 in 10.0 mi Calm Calm - N/A   Clear
10:15 PM 30.4 °F - 18.7 °F 62% 30.46 in 10.0 mi Calm Calm - N/A   Clear
10:35 PM 30.0 °F - 19.2 °F 64% 30.46 in 10.0 mi Calm Calm - N/A   Clear
10:55 PM 28.2 °F - 20.3 °F 72% 30.46 in 10.0 mi Calm Calm - N/A   Clear
11:15 PM 28.4 °F 24.6 °F 20.3 °F 72% 30.45 in 10.0 mi North 3.5 mph - N/A   Clear
11:35 PM 29.3 °F 25.6 °F 19.4 °F 67% 30.45 in 10.0 mi North 3.5 mph - N/A   Clear
11:55 PM 29.8 °F - 19.4 °F 65% 30.45 in 10.0 mi Calm Calm - N/A   Clear